Weather History for Camarillo, CA

Change the Weather History Date:

Friday, October 10, 2014

  Actual Average Record
Temperature  
Mean Temperature 68 °F 64 °F  
Max Temperature 76 °F 74 °F 96 °F (1994)
Min Temperature 60 °F 54 °F 41 °F (1949)
Degree Days  
Heating Degree Days 0 2  
Month to date heating degree days 0 20  
Since 1 July heating degree days 0 52  
Cooling Degree Days 3 1  
Month to date cooling degree days 62 10  
Year to date cooling degree days 952 293  
Growing Degree Days 18 (Base 50)    
Moisture  
Dew Point 59 °F    
Average Humidity 75    
Maximum Humidity 90    
Minimum Humidity 60    
Precipitation  
Precipitation 0.00 in 0.02 in 0.39 in (1993)
Month to date precipitation 0.00 0.12  
Year to date precipitation 4.22 11.34  
Since 1 July precipitation 0.03 0.36  
Sea Level Pressure  
Sea Level Pressure 29.98 in    
Wind  
Wind Speed 4 mph (WNW)    
Max Wind Speed 13 mph    
Max Gust Speed 22 mph    
Visibility 8 miles    
Events      
T = Trace of Precipitation, MM = Missing Value Source: NWS Daily Summary

Daily Weather History Graph

Daily Weather History Graph

Search for Another Location

Airport:

Trip Planner

Search our weather history database for the weather conditions in past years. The results will help you decide how hot, cold, wet, or windy it might be!

Date:

Astronomy

Oct. 10, 2014 Rise Set
Actual Time 6:57 AM PDT 6:28 PM PDT
Civil Twilight 6:32 AM PDT 6:53 PM PDT
Nautical Twilight 6:03 AM PDT 7:22 PM PDT
Astronomical Twilight 5:34 AM PDT 7:51 PM PDT
Moon 8:19 PM PDT (10/10) 9:18 AM PDT (10/10)
Length of Visible Light 12h 20m
Length of Day
11h 30m
Waning Gibbous, 93% of the Moon is Illuminated
Oct 10
Waning Gibbous
Oct 15
Last Quarter
Oct 23
New
Oct 30
First Quarter
Nov 6
Full

Hourly Weather History & Observations

Time (PDT) Temp. Dew Point Humidity Pressure Visibility Wind Dir Wind Speed Gust Speed Precip Events Conditions
12:55 AM 64.9 °F 59.0 °F 81% 29.98 in 8.0 mi NNW 4.6 mph - N/A   Scattered Clouds
1:55 AM 64.0 °F 59.0 °F 84% 29.97 in 8.0 mi Calm Calm - N/A   Clear
2:55 AM 62.1 °F 57.9 °F 86% 29.98 in 6.0 mi West 3.5 mph - N/A   Clear
3:55 AM 61.0 °F 57.0 °F 87% 29.97 in 6.0 mi Calm Calm - N/A   Mostly Cloudy
4:31 AM 62.1 °F 57.0 °F 84% 29.95 in 7.0 mi Calm Calm - N/A   Overcast
4:55 AM 63.0 °F 57.9 °F 84% 29.98 in 7.0 mi Calm Calm - N/A   Overcast
5:39 AM 64.0 °F 60.1 °F 87% 29.95 in 6.0 mi North 4.6 mph - N/A   Overcast
5:55 AM 64.0 °F 60.1 °F 87% 29.98 in 5.0 mi North 5.8 mph - N/A   Overcast
6:55 AM 64.0 °F 60.1 °F 87% 29.99 in 6.0 mi NNE 3.5 mph - N/A   Overcast
7:55 AM 64.9 °F 59.0 °F 81% 30.01 in 6.0 mi NNE 5.8 mph - N/A   Haze
8:55 AM 66.9 °F 60.1 °F 79% 30.02 in 5.0 mi ENE 3.5 mph - N/A   Haze
9:06 AM 66.9 °F 60.1 °F 79% 29.99 in 6.0 mi Calm Calm - N/A   Haze
9:13 AM 68.0 °F 60.1 °F 76% 30.00 in 6.0 mi North - - N/A   Haze
9:55 AM 68.0 °F 60.1 °F 76% 30.02 in 8.0 mi Calm Calm - N/A   Overcast
10:55 AM 69.1 °F 60.1 °F 73% 30.03 in 7.0 mi Calm Calm - N/A   Overcast
11:50 AM 71.6 °F 60.8 °F 69% 29.98 in 7.0 mi Variable 3.5 mph - N/A   Partly Cloudy
11:55 AM 71.1 °F 60.1 °F 68% 30.01 in 7.0 mi Calm Calm - N/A   Partly Cloudy
12:55 PM 73.9 °F 60.1 °F 62% 29.99 in 9.0 mi Variable 4.6 mph - N/A   Clear
1:55 PM 75.0 °F 60.1 °F 60% 29.98 in 9.0 mi WSW 10.4 mph - N/A   Clear
2:55 PM 73.9 °F 60.1 °F 62% 29.96 in 10.0 mi WSW 11.5 mph 17.3 mph N/A   Clear
3:55 PM 73.0 °F 60.1 °F 64% 29.95 in 10.0 mi WSW 9.2 mph - N/A   Clear
4:55 PM 71.1 °F 59.0 °F 66% 29.95 in 10.0 mi WSW 6.9 mph - N/A   Clear
5:55 PM 69.1 °F 60.1 °F 73% 29.94 in 10.0 mi SSW 5.8 mph - N/A   Clear
6:55 PM 66.0 °F 60.1 °F 81% 29.95 in 10.0 mi SSW 3.5 mph - N/A   Clear
7:55 PM 66.0 °F 60.1 °F 81% 29.95 in 10.0 mi Calm Calm - N/A   Clear
8:55 PM 64.9 °F 59.0 °F 81% 29.96 in 10.0 mi Calm Calm - N/A   Clear
9:55 PM 64.0 °F 57.9 °F 80% 29.96 in 10.0 mi Calm Calm - N/A   Clear
10:55 PM 62.1 °F 57.0 °F 84% 29.96 in 10.0 mi WNW 3.5 mph - N/A   Clear
11:55 PM 63.0 °F 57.0 °F 81% 29.97 in 9.0 mi ESE 4.6 mph - N/A   Clear